Tiempo cada hora Abohar

Hoy, 20 Octubre, Martes

Tiempo Temperatura Precipitaciones Viento Presión Humedad
00:00 +24°C° 0 mm 1 mps 738 mmHg 17%
01:00 +24°C° 0 mm 1 mps 738 mmHg 17%
02:00 +23°C° 0 mm 2 mps 738 mmHg 18%
03:00 +23°C° 0 mm 1 mps 738 mmHg 18%
04:00 +22°C° 0 mm 1 mps 738 mmHg 18%
05:00 +22°C° 0 mm 1 mps 738 mmHg 19%
06:00 +24°C° 0 mm 1 mps 738 mmHg 17%
07:00 +25°C° 0 mm 1 mps 739 mmHg 16%
08:00 +27°C° 0 mm 2 mps 740 mmHg 15%
09:00 +30°C° 0 mm 2 mps 740 mmHg 13%
10:00 +34°C° 0 mm 2 mps 740 mmHg 11%
11:00 +36°C° 0 mm 2 mps 740 mmHg 10%
12:00 +37°C° 0 mm 2 mps 739 mmHg 8%
13:00 +38°C° 0 mm 3 mps 738 mmHg 7%
14:00 +39°C° 0 mm 3 mps 738 mmHg 6%
15:00 +37°C° 0 mm 2 mps 737 mmHg 7%
16:00 +35°C° 0 mm 2 mps 737 mmHg 7%
17:00 +33°C° 0 mm 1 mps 737 mmHg 8%
18:00 +31°C° 0 mm 1 mps 737 mmHg 9%
19:00 +29°C° 0 mm 1 mps 738 mmHg 10%
20:00 +26°C° 0 mm 1 mps 738 mmHg 11%
21:00 +26°C° 0 mm 2 mps 738 mmHg 12%
22:00 +25°C° 0 mm 2 mps 738 mmHg 12%
23:00 +24°C° 0 mm 3 mps 738 mmHg 13%

Mañana, 21 Octubre, Miércoles

Tiempo Temperatura Precipitaciones Viento Presión Humedad
00:00 +24°C° 0 mm 3 mps 738 mmHg 14%
01:00 +22°C° 0 mm 3 mps 738 mmHg 15%
02:00 +22°C° 0 mm 3 mps 738 mmHg 16%
03:00 +21°C° 0 mm 3 mps 738 mmHg 16%
04:00 +21°C° 0 mm 2 mps 738 mmHg 16%
05:00 +20°C° 0 mm 2 mps 738 mmHg 17%
06:00 +23°C° 0 mm 2 mps 739 mmHg 15%
07:00 +25°C° 0 mm 2 mps 740 mmHg 14%
08:00 +26°C° 0 mm 2 mps 740 mmHg 13%
09:00 +30°C° 0 mm 1 mps 740 mmHg 11%
10:00 +33°C° 0 mm 1 mps 740 mmHg 9%
11:00 +37°C° 0 mm 1 mps 740 mmHg 7%
12:00 +37°C° 0 mm 1 mps 739 mmHg 6%
13:00 +39°C° 0 mm 1 mps 739 mmHg 6%
14:00 +39°C° 0 mm 2 mps 738 mmHg 5%
15:00 +37°C° 0 mm 2 mps 737 mmHg 6%
16:00 +36°C° 0 mm 2 mps 737 mmHg 7%
17:00 +34°C° 0 mm 2 mps 737 mmHg 8%
18:00 +31°C° 0 mm 2 mps 737 mmHg 9%
19:00 +29°C° 0 mm 2 mps 738 mmHg 11%
20:00 +27°C° 0 mm 3 mps 738 mmHg 12%
21:00 +26°C° 0 mm 3 mps 738 mmHg 12%
22:00 +26°C° 0 mm 2 mps 738 mmHg 13%
23:00 +25°C° 0 mm 2 mps 738 mmHg 14%

Pasado mañana, 22 Octubre, Jueves

Tiempo Temperatura Precipitaciones Viento Presión Humedad
00:00 +24°C° 0 mm 2 mps 738 mmHg 15%
01:00 +23°C° 0 mm 2 mps 738 mmHg 16%
02:00 +23°C° 0 mm 2 mps 738 mmHg 17%
03:00 +21°C° 0 mm 2 mps 738 mmHg 18%
04:00 +21°C° 0 mm 2 mps 738 mmHg 19%
05:00 +20°C° 0 mm 2 mps 738 mmHg 20%
06:00 +23°C° 0 mm 2 mps 738 mmHg 19%
07:00 +24°C° 0 mm 2 mps 739 mmHg 18%
08:00 +26°C° 0 mm 2 mps 740 mmHg 17%
09:00 +29°C° 0 mm 2 mps 740 mmHg 14%
10:00 +32°C° 0 mm 2 mps 740 mmHg 11%
11:00 +36°C° 0 mm 2 mps 740 mmHg 9%
12:00 +37°C° 0 mm 3 mps 739 mmHg 8%
13:00 +38°C° 0 mm 3 mps 739 mmHg 7%
14:00 +39°C° 0 mm 3 mps 738 mmHg 6%
15:00 +37°C° 0 mm 3 mps 738 mmHg 7%
16:00 +35°C° 0 mm 2 mps 737 mmHg 8%
17:00 +34°C° 0 mm 2 mps 737 mmHg 9%
18:00 +31°C° 0 mm 2 mps 737 mmHg 10%
19:00 +29°C° 0 mm 2 mps 738 mmHg 11%
20:00 +27°C° 0 mm 1 mps 738 mmHg 12%
21:00 +26°C° 0 mm 1 mps 738 mmHg 13%
22:00 +25°C° 0 mm 1 mps 738 mmHg 14%
23:00 +24°C° 0 mm 1 mps 738 mmHg 15%

23 Octubre, Viernes

Tiempo Temperatura Precipitaciones Viento Presión Humedad
00:00 +23°C° 0 mm 1 mps 738 mmHg 16%
01:00 +23°C° 0 mm 1 mps 738 mmHg 17%
02:00 +22°C° 0 mm 1 mps 738 mmHg 17%
03:00 +22°C° 0 mm 1 mps 738 mmHg 19%
04:00 +22°C° 0 mm 1 mps 738 mmHg 21%
05:00 +22°C° 0 mm 1 mps 738 mmHg 23%
06:00 +23°C° 0 mm 2 mps 738 mmHg 23%
07:00 +25°C° 0 mm 2 mps 739 mmHg 22%
08:00 +27°C° 0 mm 3 mps 739 mmHg 22%
09:00 +30°C° 0 mm 3 mps 740 mmHg 18%
10:00 +34°C° 0 mm 3 mps 740 mmHg 15%
11:00 +37°C° 0 mm 3 mps 740 mmHg 11%
12:00 +38°C° 0 mm 2 mps 739 mmHg 9%
13:00 +39°C° 0 mm 1 mps 739 mmHg 8%
14:00 +40°C° 0 mm 1 mps 738 mmHg 6%
15:00 +37°C° 0 mm 1 mps 738 mmHg 7%
16:00 +35°C° 0 mm 1 mps 737 mmHg 8%
17:00 +33°C° 0 mm 1 mps 737 mmHg 9%
18:00 +31°C° 0 mm 1 mps 737 mmHg 10%
19:00 +29°C° 0 mm 1 mps 738 mmHg 10%
20:00 +28°C° 0 mm 1 mps 738 mmHg 11%
21:00 +27°C° 0 mm 1 mps 738 mmHg 12%
22:00 +25°C° 0 mm 1 mps 738 mmHg 13%
23:00 +24°C° 0 mm 1 mps 738 mmHg 14%

24 Octubre, Sábado

Tiempo Temperatura Precipitaciones Viento Presión Humedad
00:00 +24°C° 0 mm 1 mps 738 mmHg 15%
01:00 +24°C° 0 mm 2 mps 738 mmHg 16%
02:00 +23°C° 0 mm 2 mps 738 mmHg 17%
03:00 +23°C° 0 mm 2 mps 738 mmHg 19%
04:00 +23°C° 0 mm 2 mps 738 mmHg 20%
05:00 +21°C° 0 mm 2 mps 738 mmHg 21%
06:00 +24°C° 0 mm 2 mps 739 mmHg 20%
07:00 +25°C° 0 mm 2 mps 739 mmHg 19%
08:00 +27°C° 0 mm 2 mps 740 mmHg 18%
09:00 +30°C° 0 mm 3 mps 740 mmHg 15%
10:00 +34°C° 0 mm 3 mps 740 mmHg 13%
11:00 +37°C° 0 mm 3 mps 740 mmHg 10%
12:00 +38°C° 0 mm 3 mps 739 mmHg 9%
13:00 +38°C° 0 mm 3 mps 739 mmHg 8%
14:00 +39°C° 0 mm 2 mps 738 mmHg 7%
15:00 +37°C° 0 mm 2 mps 738 mmHg 8%
16:00 +35°C° 0 mm 2 mps 737 mmHg 8%
17:00 +34°C° 0 mm 2 mps 737 mmHg 9%
18:00 +31°C° 0 mm 2 mps 737 mmHg 10%
19:00 +29°C° 0 mm 2 mps 738 mmHg 11%
20:00 +28°C° 0 mm 2 mps 738 mmHg 12%
21:00 +27°C° 0 mm 2 mps 738 mmHg 13%
22:00 +26°C° 0 mm 2 mps 738 mmHg 13%
23:00 +25°C° 0 mm 2 mps 739 mmHg 14%

25 Octubre, Domingo

Tiempo Temperatura Precipitaciones Viento Presión Humedad
00:00 +25°C° 0 mm 3 mps 738 mmHg 15%
01:00 +24°C° 0 mm 3 mps 738 mmHg 15%
02:00 +24°C° 0 mm 3 mps 738 mmHg 15%
03:00 +24°C° 0 mm 3 mps 738 mmHg 17%
04:00 +22°C° 0 mm 3 mps 738 mmHg 19%
05:00 +22°C° 0 mm 3 mps 738 mmHg 21%
06:00 +24°C° 0 mm 3 mps 739 mmHg 21%
07:00 +26°C° 0 mm 4 mps 739 mmHg 21%
08:00 +28°C° 0 mm 4 mps 740 mmHg 20%
09:00 +30°C° 0 mm 4 mps 740 mmHg 19%
10:00 +34°C° 0 mm 4 mps 740 mmHg 17%
11:00 +37°C° 0 mm 4 mps 740 mmHg 15%
12:00 +38°C° 0 mm 4 mps 739 mmHg 13%
13:00 +39°C° 0 mm 5 mps 739 mmHg 12%
14:00 +39°C° 0 mm 6 mps 738 mmHg 11%
15:00 +35°C° 0 mm 6 mps 738 mmHg 16%
16:00 +33°C° 0 mm 6 mps 738 mmHg 22%
17:00 +29°C° 0 mm 6 mps 738 mmHg 27%
18:00 +28°C° 0.1 mm 6 mps 739 mmHg 30%
19:00 +28°C° 0.1 mm 5 mps 739 mmHg 32%
20:00 +27°C° 0.1 mm 5 mps 740 mmHg 35%
21:00 +25°C° 0.4 mm 4 mps 740 mmHg 46%
22:00 +22°C° 0.4 mm 4 mps 740 mmHg 57%
23:00 +20°C° 0.4 mm 4 mps 741 mmHg 69%
Mostrar más

Necesitamos Su Consentimiento

Meteoprog y nuestros Proveedores de Servicios pueden almacenar y acceder a sus datos personales como cookies, identificadores de dispositivo u otras tecnologías similares de su dispositivo y procesar dichos datos para personalizar contenido y anuncios, además de ofrecer funciones de redes sociales y analizar el tráfico.

  • Almacenar y/o acceder a información en su dispositivo

    Se puede almacenar o acceder a cookies, identificadores de dispositivo u otra información de su dispositivo para los fines anteriormente indicados.

  • Anuncios y contenido personalizados, medición de anuncios y contenido, percepciones del público, y desarrollo de productos

    Los anuncios y el contenido pueden personalizarse en base a su perfil. Se pueden añadir más datos para personalizar mejor los anuncios y contenidos. Se puede medir el rendimiento de los anuncios y contenidos. Se puede obtener la percepción sobre el público que ha visto los anuncios y contenidos. Dichos datos pueden usarse para desarrollar o mejorar la experiencia del usuario, sistemas y software.

Al hacer clic en ‘Estoy De Acuerdo’ usted permitirá el uso de las cookies, identificadores de dispositivo, balizas web u otras tecnologías similares indicadas. Su configuración puede cambiarse desde el navegador de su dispositivo.

Para ciertos fines, los intereses legítimos pueden ser considerados por encima del consentimiento. Puede leer más sobre ello en nuestra Política de Privacidad y Cookies.